Simultaneous Nadir Overpasses (SNOs) Predictions

Prediction of SNOs between GOES-15 and NPP Satellite Orbit:

Table of predicted SNOs for the next 14.0 days since TLE Epoch: 12/17/2016
Index Date Time (GOES-15) GOES-15 Lat,Lon NPP Lat,Lon Distance(km) Time Diff (sec)
1 12/17/2016 22:18:27 0.04,-135.17 0.50,-133.06 240.07 80
2 12/19/2016 10:37:35 -0.05,-135.16 0.64,-138.34 361.84 80
3 12/20/2016 10:21:30 -0.04,-135.14 -0.34,-133.80 152.15 80
4 12/21/2016 22:40:45 0.06,-135.07 -0.87,-139.10 459.84 80
5 12/22/2016 22:24:41 0.05,-135.05 0.17,-134.58 54.10 80
6 12/25/2016 10:25:02 -0.05,-135.01 0.04,-135.31 34.89 80
7 12/26/2016 10:08:58 -0.04,-134.97 -1.00,-130.78 478.48 80
8 12/27/2016 22:28:13 0.05,-134.89 -0.20,-136.08 134.82 80
9 12/28/2016 22:12:08
